Wind_Speed
22 21 20 21 22 24 27 29 30 31 33 35 35 34 33 32 32 31 29 29 29 29 29 28 25 23 22 21 19 18 16 14 13 12 11 10 9 8 8 7 6 6 6 7 7 7 7 8 8 9 11 12 14 15 16 16 17 18 20 21 23 25 26
25 24 23 23 22 23 26 29 31 33 35 35 35 34 33 32 32 31 29 28 28 29 29 28 26 25 23 23 21 20 18 16 15 15 14 12 12 12 11 10 9 8 9 9 9 9 9 10 11 12 14 15 16 17 17 17 17 18 19 21 23 25 26
27 26 26 25 24 24 25 27 30 33 35 36 35 34 32 31 30 29 28 27 27 27 28 28 27 26 25 25 24 22 20 19 18 17 16 15 15 15 14 12 11 11 11 11 11 11 11 11 13 15 17 18 18 19 19 19 19 19 20 21 23 25 26
27 28 27 26 25 26 27 28 30 31 34 35 36 34 32 30 28 28 28 27 26 27 28 28 28 28 28 27 26 25 24 22 20 19 18 18 18 17 16 14 13 13 13 13 13 13 14 14 15 17 19 20 20 21 21 22 22 21 21 22 23 25 26
27 27 28 28 28 28 29 30 31 32 33 34 34 33 32 31 29 29 29 29 28 27 26 27 28 29 29 29 28 27 26 25 23 22 21 20 20 19 18 17 16 16 16 17 17 17 17 18 19 20 22 22 22 22 23 24 24 24 23 23 24 26 27
28 27 28 29 29 30 30 31 31 31 31 31 31 30 30 30 30 30 30 31 30 28 27 27 28 29 29 29 29 29 29 28 27 25 23 23 23 22 20 20 20 20 20 20 20 21 21 21 22 23 24 25 24 24 24 25 26 26 25 25 26 27 28
29 28 29 30 30 31 31 30 30 30 29 29 28 27 27 28 30 30 30 31 30 29 28 28 29 29 29 30 30 30 31 30 29 28 26 26 25 24 23 22 22 23 23 24 24 24 24 24 25 26 27 28 27 26 26 27 28 28 27 27 28 28 29
32 30 29 30 30 32 32 30 29 28 27 27 27 27 27 29 30 31 31 32 31 30 30 30 30 30 29 30 30 31 31 31 31 30 29 28 27 26 25 24 25 25 27 27 26 26 27 27 27 28 29 30 29 28 28 28 29 29 28 29 29 30 30
34 32 31 30 30 31 31 31 30 28 27 26 27 27 28 29 30 30 31 31 30 31 31 30 30 29 29 30 30 31 31 32 33 32 31 30 29 28 27 27 27 28 29 30 29 29 29 29 30 31 32 31 30 30 30 30 31 30 30 30 31 31 31
37 35 34 33 31 30 30 31 32 31 30 29 29 30 31 32 31 31 31 31 31 33 32 30 30 30 30 31 31 31 31 32 33 32 32 32 31 31 30 30 30 31 31 32 32 32 32 32 33 34 33 32 31 31 31 31 32 32 32 33 33 32 32
41 40 37 35 33 31 31 31 32 34 34 33 33 33 34 34 34 34 33 33 34 34 32 31 31 31 32 32 31 31 31 31 32 32 32 32 32 32 32 32 33 33 33 33 33 33 34 34 34 34 34 32 31 32 33 33 33 33 34 35 35 34 34
45 44 41 38 36 35 35 34 33 34 35 36 36 36 36 36 36 36 36 36 36 35 33 32 32 33 33 33 32 32 32 32 32 32 31 32 33 33 33 34 34 34 34 34 34 34 35 35 35 35 34 32 32 33 34 35 35 35 36 36 37 36 36
47 46 44 42 40 39 38 37 36 36 36 36 37 37 38 38 38 38 37 37 37 36 34 34 34 35 36 35 35 35 34 34 33 32 32 33 34 34 35 35 35 35 35 35 35 35 35 35 35 35 34 34 34 35 36 37 37 37 37 38 38 39 39
50 48 46 45 44 42 40 39 39 38 38 38 38 38 38 39 39 39 39 39 38 36 36 35 36 37 38 37 37 37 37 35 34 34 34 35 36 36 36 36 36 36 36 36 36 37 37 37 36 36 36 36 36 36 37 38 40 40 39 38 40 41 41
52 50 49 47 46 44 43 42 41 41 40 40 40 40 40 40 40 40 40 40 39 38 38 37 38 39 39 39 40 39 38 37 36 37 37 38 38 38 38 39 39 38 38 38 38 38 38 38 38 38 38 38 38 38 38 40 42 42 40 40 41 43 44
54 53 51 50 49 47 46 45 44 44 43 43 43 44 43 42 42 41 41 41 40 40 39 38 39 40 41 41 41 40 39 39 40 40 40 41 40 40 40 40 40 40 40 39 39 39 39 39 40 40 40 40 40 40 41 41 42 43 42 42 43 44 45
54 54 53 53 52 51 50 49 48 47 46 46 46 46 45 44 43 42 41 41 41 41 40 40 41 42 42 43 42 41 41 42 42 42 42 42 41 41 41 40 40 41 41 41 41 40 40 41 42 42 42 42 42 43 43 43 43 44 44 44 45 46 47
51 53 54 54 54 53 53 52 51 50 49 48 48 48 48 46 44 43 42 43 43 42 41 42 43 44 44 44 43 43 43 43 43 43 43 43 42 42 42 42 42 43 43 42 42 42 43 44 44 43 44 44 44 45 45 45 45 46 47 47 48 48 49
44 47 50 52 53 54 54 54 54 53 52 52 50 50 50 48 45 44 45 45 44 43 43 45 46 46 46 46 45 46 45 45 45 45 45 45 44 44 44 44 45 45 45 45 44 45 46 46 45 45 46 46 47 47 47 48 49 49 50 51 51 51 52
36 39 42 45 47 50 52 54 55 55 55 54 53 53 53 51 48 48 48 47 47 47 47 48 48 48 48 48 48 48 48 47 48 47 47 47 46 46 46 47 47 48 48 47 47 47 48 48 48 48 49 49 49 50 50 51 53 53 54 54 54 55 55
32 33 36 38 40 43 47 50 52 53 55 55 55 55 54 54 53 52 51 51 51 51 51 51 51 51 51 51 51 51 50 50 50 50 50 49 49 48 48 49 50 51 51 50 50 50 51 51 52 52 52 52 52 52 53 55 56 57 58 58 58 58 57
32 32 33 35 36 38 41 43 46 48 50 52 53 54 55 55 55 55 54 55 54 54 54 54 54 54 54 55 54 54 54 53 53 53 53 53 52 51 52 52 53 54 54 54 54 54 54 55 56 56 56 56 56 56 57 58 60 61 61 61 61 61 61
35 34 34 34 34 35 37 39 40 42 43 44 46 49 51 52 53 54 55 56 56 57 57 57 57 58 58 58 58 57 57 57 57 57 56 56 56 56 57 57 57 57 57 57 57 57 58 59 59 60 60 61 61 61 61 62 63 64 65 66 65 64 64
37 36 35 34 34 35 35 36 36 37 37 38 40 42 44 46 47 48 50 52 54 55 56 57 59 59 60 60 60 60 60 59 59 60 60 60 60 61 61 61 61 61 60 60 60 61 61 62 63 63 64 64 65 64 64 65 66 68 69 70 69 68 68
38 37 36 35 35 35 34 33 33 33 34 35 36 37 39 40 41 42 44 45 47 48 50 52 54 56 57 59 59 60 61 61 62 62 63 63 64 64 64 65 65 64 64 64 64 65 65 65 66 67 68 68 68 68 68 69 69 70 71 72 73 73 72
38 38 37 37 36 35 34 34 33 32 33 33 34 35 35 36 37 37 38 39 40 42 44 46 47 49 51 53 54 55 56 58 59 60 61 62 63 64 64 65 66 66 66 66 66 66 67 67 67 68 69 69 69 68 68 69 69 69 70 71 71 72 72
39 39 38 38 38 37 36 35 35 33 33 33 34 34 34 34 35 35 36 36 36 38 39 41 43 44 46 47 48 48 50 51 52 54 55 55 56 56 56 57 59 60 60 61 62 62 62 62 62 63 63 63 63 63 63 63 63 63 65 66 65 65 65
42 41 40 40 40 39 38 37 36 35 34 35 35 35 35 35 35 36 36 36 36 37 38 39 40 40 41 43 43 44 45 45 47 48 48 48 49 49 50 51 52 52 53 53 54 54 54 54 54 54 54 54 55 55 56 57 57 57 58 60 60 60 60
46 44 43 42 42 41 40 39 38 37 36 37 37 37 36 36 37 37 38 38 38 38 38 38 39 40 40 41 41 42 42 42 43 44 44 45 46 47 48 49 50 49 50 50 50 50 49 49 49 49 49 49 50 51 52 53 54 54 54 56 57 56 56
50 48 47 45 45 44 43 42 40 39 38 38 38 38 38 38 38 38 38 38 38 38 39 39 40 40 41 42 42 42 42 42 43 43 43 44 45 46 47 48 48 49 49 49 49 48 47 48 48 47 48 48 49 50 52 52 52 52 53 54 55 54 54
53 52 51 49 47 46 46 45 43 42 41 41 40 40 39 39 40 40 40 39 39 39 39 40 41 41 42 43 43 44 44 44 44 44 44 45 45 46 47 47 47 48 48 48 48 48 48 49 49 48 48 49 50 52 53 53 51 51 52 53 53 52 51
56 55 54 52 51 49 48 47 46 45 45 44 43 43 42 42 42 42 41 41 41 41 41 41 42 42 43 43 44 44 45 45 46 46 47 47 47 47 48 48 48 48 48 48 48 48 49 49 49 49 49 50 52 53 53 53 52 52 53 53 52 49 48
58 58 56 55 54 52 51 50 49 48 48 47 47 46 45 44 44 44 44 43 43 43 43 43 44 44 44 44 45 45 46 47 48 48 48 49 49 49 49 50 50 50 50 50 49 49 49 50 50 50 50 51 53 54 54 54 54 53 54 54 50 45 42
60 59 58 57 56 55 54 53 52 51 51 50 50 49 48 47 47 47 46 46 46 46 46 46 46 46 46 46 46 47 48 48 49 50 50 50 49 50 50 51 52 52 53 53 53 51 51 51 51 51 52 53 54 55 55 55 55 53 52 49 44 38 36
61 60 59 59 58 57 56 56 55 54 54 53 52 51 51 50 50 49 49 49 48 48 48 48 48 48 48 48 48 49 50 50 50 51 51 51 51 51 51 52 53 54 55 56 56 55 53 53 52 52 53 54 54 55 56 56 55 55 50 43 38 36 35
62 62 61 60 60 59 59 58 57 57 56 56 55 54 53 53 53 52 52 51 51 51 51 51 52 51 51 51 51 51 52 52 52 52 52 52 52 52 53 53 54 55 56 57 58 58 57 56 54 53 54 53 53 55 56 56 56 56 52 44 42 41 37
65 64 63 62 62 61 61 60 59 59 59 58 57 57 56 56 55 55 55 55 55 55 55 55 55 55 54 55 54 55 55 55 55 55 55 54 54 54 54 54 55 56 57 58 59 60 60 58 56 54 54 54 53 54 57 57 56 56 53 49 47 44 39
68 67 66 65 64 64 63 62 61 61 60 60 59 59 59 58 58 59 59 60 59 59 59 58 58 58 58 58 58 58 58 58 58 58 57 57 56 56 55 55 56 57 57 58 60 61 61 60 58 56 55 54 53 54 56 57 56 55 53 49 45 44 43
Wind_Direction
207 205 203 201 195 188 184 185 189 192 193 193 194 192 191 192 195 197 200 203 205 206 208 209 211 212 214 218 221 223 225 225 228 235 240 244 250 256 260 264 266 266 268 273 278 282 287 295 305 315 322 324 326 328 330 333 338 342 344 345 345 346 349
211 208 206 204 199 191 185 183 185 187 189 193 196 196 195 196 197 200 202 205 207 209 211 213 215 217 219 223 226 228 229 229 230 235 241 245 250 254 258 263 267 271 273 276 279 283 286 290 297 306 313 315 318 321 322 324 329 334 338 340 340 340 344
213 211 211 211 205 198 191 188 186 186 189 193 196 199 200 200 201 202 205 208 211 212 214 216 218 221 224 227 231 234 235 234 233 235 240 244 247 251 254 259 265 270 275 277 280 284 287 289 294 301 306 309 312 315 316 318 322 327 331 335 336 335 338
214 214 214 215 213 206 200 196 193 191 192 194 197 200 202 204 204 205 208 212 215 215 216 218 221 224 227 230 233 236 238 238 238 239 242 246 250 254 258 262 266 269 274 277 281 284 286 290 295 299 302 305 309 311 312 314 317 321 326 330 332 332 334
215 216 216 216 216 213 207 203 200 199 198 200 200 200 202 204 206 209 212 215 219 220 221 222 224 226 230 233 236 239 241 242 242 241 243 248 253 257 261 264 267 269 272 276 279 283 287 291 295 299 302 304 307 309 310 310 313 317 322 326 328 329 330
215 216 218 217 217 218 215 210 206 206 207 209 209 208 206 205 207 210 213 217 221 223 224 225 227 230 232 235 238 241 243 244 245 245 246 248 252 256 261 264 267 270 272 274 277 281 285 290 294 299 301 302 304 307 308 308 310 314 318 322 325 325 326
219 218 219 219 219 220 220 216 213 211 212 215 218 218 214 211 212 213 215 219 222 225 226 228 230 232 234 236 240 243 244 246 247 248 248 249 252 256 260 263 266 270 272 273 275 278 282 286 291 295 299 300 300 303 304 305 307 310 314 318 321 322 323
223 221 220 220 220 221 222 221 219 216 216 219 222 223 221 219 218 217 218 220 222 225 228 230 232 234 236 239 241 243 245 246 248 249 251 253 255 257 260 263 265 268 271 272 275 277 280 283 287 290 294 297 297 299 301 302 304 307 311 314 317 319 320
226 225 224 222 221 222 223 223 223 220 219 221 225 226 227 227 226 224 224 224 225 228 230 231 234 237 239 241 241 243 244 246 248 250 252 254 256 258 260 262 264 266 268 271 274 277 279 282 284 287 291 294 295 296 298 299 302 305 309 312 314 316 318
225 227 226 225 223 221 223 224 224 222 219 220 223 225 227 228 229 229 230 230 230 231 232 232 235 238 240 242 243 244 245 247 249 251 253 255 258 260 262 263 264 266 268 271 274 277 279 280 282 285 288 290 292 294 296 298 301 304 306 309 311 313 316
220 223 224 224 224 222 221 222 223 223 222 221 222 223 226 228 229 230 231 231 232 233 234 234 236 238 241 244 245 247 248 249 250 252 254 257 259 261 262 263 265 266 268 271 273 276 278 279 281 283 285 287 289 292 295 297 300 302 304 306 308 310 313
217 219 220 222 223 223 222 220 221 223 223 223 224 225 227 229 230 231 231 232 234 234 235 235 236 238 241 244 246 248 249 250 252 253 255 258 259 260 262 263 265 266 268 269 272 274 276 279 281 282 283 285 288 291 294 296 298 300 303 304 306 308 310
217 218 219 220 222 223 223 222 221 221 222 224 225 227 228 230 232 233 234 235 236 237 236 236 237 239 240 242 245 247 249 250 252 254 256 258 259 261 262 264 265 267 268 269 271 273 276 279 280 281 282 284 287 289 292 294 296 298 301 303 305 306 307
219 218 218 220 221 223 224 225 224 224 224 225 226 227 228 230 231 233 235 236 237 237 238 238 238 240 241 242 244 245 247 249 252 254 256 258 260 262 263 265 267 268 269 270 271 274 276 278 279 280 282 283 286 288 290 292 294 296 299 302 302 303 304
221 221 220 221 221 222 224 225 226 227 227 228 228 228 228 229 231 232 234 235 236 237 237 238 239 241 242 243 245 246 248 250 252 254 255 257 259 261 263 265 267 268 270 271 272 273 275 277 278 279 280 282 285 287 289 291 292 295 298 299 300 300 302
223 223 222 222 223 223 224 225 226 227 228 230 231 232 231 231 231 233 234 236 237 239 240 241 242 243 245 246 247 249 250 251 252 253 255 256 258 260 262 264 266 267 268 269 270 272 273 275 276 277 279 282 284 286 287 289 291 294 296 296 297 298 300
224 224 224 224 225 225 225 225 226 227 228 230 233 235 235 235 235 236 237 239 240 240 242 243 245 246 247 249 250 252 252 253 254 255 256 257 259 260 262 264 265 266 267 268 270 271 272 273 274 277 279 281 283 284 286 288 290 292 293 294 295 297 298
225 226 226 227 227 227 228 228 228 229 230 231 233 237 238 238 239 240 241 242 243 243 244 245 247 248 249 250 252 253 254 255 256 257 258 259 260 262 263 264 265 266 267 269 270 272 273 274 276 278 280 281 283 284 286 288 289 290 291 292 293 295 296
225 227 228 229 230 230 230 231 231 231 232 233 234 237 240 241 241 242 243 244 246 247 247 248 249 250 251 252 253 254 254 256 257 258 259 261 262 263 264 265 267 268 269 270 271 273 274 276 277 279 280 282 283 284 286 288 288 288 289 290 292 293 294
223 224 226 228 229 231 231 232 234 234 234 235 235 237 240 241 241 242 244 245 246 247 248 248 250 251 252 253 254 255 256 257 259 260 261 262 264 265 266 267 268 270 271 272 273 274 276 277 278 279 280 281 283 285 286 287 287 287 287 288 290 291 293
221 222 224 225 226 229 231 232 234 236 237 238 238 238 240 242 242 243 244 245 246 247 248 249 251 252 253 254 255 256 257 258 260 261 263 264 265 266 267 269 270 271 272 274 275 276 277 278 278 279 280 281 283 284 284 284 284 285 286 287 289 290 291
219 222 224 225 226 227 229 232 233 236 238 240 241 241 242 243 244 245 246 247 247 249 250 251 252 253 254 255 255 256 257 258 259 261 262 264 265 267 268 268 269 270 271 272 273 275 276 277 278 279 280 281 282 282 282 283 283 285 286 287 288 289 290
217 220 222 224 226 227 229 231 233 235 237 239 241 243 244 245 246 247 248 249 249 250 251 252 253 254 255 256 257 258 258 259 261 262 263 265 266 266 267 267 268 269 270 271 273 274 275 276 277 278 279 280 280 281 282 283 284 285 286 286 287 288 288
217 219 221 223 226 228 230 232 234 235 237 237 239 241 243 245 246 247 249 250 251 252 253 254 255 256 257 257 258 259 260 261 262 263 264 265 265 265 266 267 268 269 270 271 272 273 274 275 276 277 278 278 279 280 281 282 284 285 285 286 287 287 286
219 221 222 224 227 230 232 234 236 238 239 240 240 240 241 243 245 247 248 250 252 253 254 255 256 257 258 259 259 260 261 262 262 263 264 265 266 267 267 268 269 270 270 271 272 273 274 275 276 276 277 278 279 280 281 282 283 284 284 285 286 286 286
224 225 225 225 227 230 232 235 237 239 241 244 245 245 245 246 247 249 250 251 252 254 255 257 258 259 260 261 261 262 263 263 264 264 265 266 267 269 270 270 271 272 272 273 273 274 275 275 276 277 279 280 281 281 282 283 283 283 283 283 284 284 285
227 229 229 228 227 228 230 233 236 238 241 244 247 250 251 252 254 255 255 255 256 256 257 258 260 261 263 263 264 264 265 266 267 267 268 268 269 270 270 272 274 275 275 276 277 277 278 278 279 280 281 282 282 283 283 283 283 283 284 284 284 284 284
228 229 231 232 231 231 231 233 235 237 239 242 246 249 251 254 256 258 259 260 260 261 262 263 264 265 266 267 267 267 267 268 269 270 271 272 272 271 271 273 276 277 277 278 279 280 281 281 281 282 282 282 283 284 284 284 284 285 285 287 287 288 288
229 230 231 234 236 237 236 236 237 237 238 240 243 246 249 251 253 255 258 260 261 262 264 265 267 269 270 271 272 272 272 272 272 273 274 274 273 273 273 274 275 276 276 277 277 279 280 281 282 282 283 284 284 284 284 284 285 285 286 288 288 289 290
232 232 232 233 235 238 240 240 240 240 239 240 241 243 245 248 250 253 255 257 258 260 262 264 266 268 269 272 273 274 275 275 276 276 276 277 277 277 276 277 277 277 278 279 279 281 282 282 283 283 284 285 285 284 283 283 283 285 286 287 288 288 288
235 235 235 235 236 237 240 241 242 242 242 242 243 245 246 247 249 251 253 254 256 257 259 261 263 265 267 269 271 273 274 275 276 277 277 278 279 279 279 280 281 282 283 283 284 285 284 284 285 285 286 286 286 285 284 283 284 286 287 288 288 287 286
236 237 238 238 238 239 240 241 242 244 244 245 246 248 250 250 250 251 252 254 255 256 258 260 261 263 265 266 268 270 271 272 273 274 276 277 278 279 280 281 282 284 284 285 286 285 285 285 286 285 286 286 285 285 285 285 287 289 290 290 289 288 286
237 238 239 240 240 241 241 242 243 244 245 247 248 250 252 252 253 253 253 254 255 256 257 259 261 262 263 265 266 267 268 270 271 272 274 275 277 278 279 281 282 283 284 285 286 286 287 287 286 286 286 286 286 286 286 287 288 289 289 289 288 287 287
237 238 240 241 241 242 242 243 244 245 247 248 250 251 252 253 254 255 255 256 256 257 258 260 261 262 263 264 266 267 268 269 269 270 272 273 274 276 277 279 281 283 284 285 287 288 289 289 289 288 287 287 287 287 286 287 288 288 287 286 285 286 286
238 239 240 241 242 243 244 245 246 247 248 249 251 252 252 253 254 255 256 258 259 260 261 262 263 263 264 265 266 267 269 269 270 271 272 273 274 275 276 277 279 281 282 284 286 288 289 290 290 289 286 286 286 286 286 288 290 290 287 283 283 287 284
239 240 241 242 243 245 246 247 248 249 250 250 251 252 253 253 254 255 257 258 260 261 263 264 265 266 266 267 268 268 269 270 271 272 272 273 274 275 276 277 278 279 280 282 283 286 287 288 289 288 286 284 284 285 286 287 289 289 286 282 285 288 283
239 240 241 242 244 245 247 248 249 250 251 251 252 252 252 253 254 255 257 258 259 261 262 264 265 267 268 269 270 270 271 271 272 272 273 274 274 275 276 277 277 278 278 279 280 282 285 287 288 289 287 284 283 284 285 285 285 285 283 282 286 287 280
239 240 241 242 244 245 246 247 249 250 251 252 253 253 254 254 255 255 257 258 259 260 262 263 265 267 269 270 271 272 273 273 273 273 274 274 274 275 275 276 276 277 277 278 279 280 283 285 287 288 287 285 282 281 282 284 284 282 279 281 283 280 277
Height
10938 10940 10941 10942 10942 10941 10942 10943 10946 10951 10955 10958 10960 10962 10963 10965 10967 10969 10971 10973 10976 10978 10980 10982 10984 10985 10987 10988 10989 10990 10990 10991 10992 10992 10993 10993 10994 10995 10995 10995 10996 10997 10997 10997 10997 10997 10997 10997 10997 10997 10996 10996 10995 10994 10993 10993 10993 10992 10991 10990 10988 10986 10985
10936 10938 10940 10941 10942 10942 10943 10943 10944 10947 10951 10955 10958 10960 10962 10964 10965 10968 10970 10972 10974 10976 10979 10981 10983 10984 10986 10987 10987 10988 10989 10990 10991 10991 10992 10993 10993 10994 10994 10994 10995 10995 10996 10996 10996 10996 10996 10996 10996 10995 10995 10994 10994 10993 10992 10991 10991 10991 10990 10988 10987 10985 10984
10934 10936 10938 10940 10942 10943 10944 10944 10945 10946 10949 10952 10955 10958 10960 10962 10965 10967 10969 10971 10973 10975 10977 10979 10981 10983 10984 10985 10986 10987 10988 10989 10990 10990 10991 10991 10992 10992 10993 10993 10994 10994 10994 10994 10994 10994 10995 10994 10994 10994 10993 10992 10992 10991 10991 10990 10989 10989 10988 10987 10986 10984 10983
10931 10933 10936 10939 10941 10942 10943 10943 10945 10946 10948 10950 10952 10955 10958 10961 10964 10967 10969 10970 10972 10973 10975 10978 10980 10981 10982 10983 10984 10985 10986 10987 10988 10989 10989 10990 10990 10990 10991 10992 10992 10993 10992 10992 10992 10993 10993 10992 10992 10992 10991 10990 10990 10990 10989 10988 10988 10987 10987 10986 10984 10983 10981
10930 10931 10934 10936 10938 10940 10941 10942 10943 10945 10946 10948 10950 10953 10955 10959 10962 10964 10967 10968 10970 10971 10974 10976 10977 10978 10979 10981 10982 10983 10984 10985 10986 10987 10988 10988 10988 10989 10989 10990 10990 10991 10991 10991 10990 10990 10991 10990 10990 10990 10989 10988 10988 10988 10987 10986 10985 10985 10985 10984 10983 10981 10979
10928 10929 10931 10933 10935 10937 10939 10941 10943 10944 10946 10948 10950 10952 10954 10956 10959 10961 10963 10965 10967 10969 10972 10973 10974 10976 10977 10979 10980 10981 10982 10983 10984 10985 10986 10987 10987 10987 10988 10988 10988 10988 10989 10989 10988 10988 10988 10988 10988 10987 10987 10986 10986 10986 10985 10984 10983 10983 10982 10982 10981 10979 10978
10925 10927 10929 10931 10933 10935 10936 10939 10941 10943 10946 10948 10951 10953 10954 10956 10957 10958 10961 10962 10964 10967 10969 10970 10971 10973 10975 10976 10977 10978 10979 10980 10981 10983 10984 10984 10985 10985 10986 10986 10986 10986 10986 10986 10986 10986 10986 10986 10986 10985 10985 10984 10984 10983 10983 10982 10981 10980 10980 10979 10978 10977 10975
10923 10925 10927 10929 10931 10933 10935 10937 10939 10942 10945 10947 10950 10952 10954 10955 10955 10957 10958 10959 10962 10964 10965 10967 10968 10970 10972 10973 10975 10976 10977 10978 10979 10980 10981 10982 10983 10984 10984 10984 10984 10984 10984 10983 10984 10984 10984 10984 10984 10983 10982 10982 10981 10981 10980 10979 10978 10977 10977 10976 10975 10975 10973
10920 10923 10925 10927 10929 10931 10933 10936 10938 10940 10942 10944 10947 10949 10951 10952 10953 10955 10956 10957 10959 10960 10962 10964 10966 10968 10969 10970 10972 10973 10974 10975 10976 10977 10978 10979 10980 10981 10982 10982 10982 10982 10981 10981 10981 10981 10982 10982 10981 10981 10980 10979 10979 10978 10977 10976 10975 10974 10973 10973 10972 10972 10971
10916 10919 10922 10924 10927 10929 10931 10934 10936 10937 10938 10940 10942 10944 10946 10948 10949 10951 10953 10954 10956 10956 10958 10961 10963 10965 10966 10967 10969 10970 10971 10972 10973 10974 10975 10976 10977 10978 10979 10979 10979 10978 10978 10978 10978 10978 10979 10979 10978 10978 10977 10977 10976 10975 10974 10973 10972 10971 10970 10969 10969 10968 10967
10911 10913 10916 10920 10923 10926 10928 10930 10932 10934 10935 10936 10938 10940 10942 10943 10945 10947 10949 10951 10951 10952 10955 10958 10960 10961 10962 10963 10965 10967 10967 10969 10970 10971 10972 10973 10974 10974 10975 10975 10975 10975 10975 10975 10975 10975 10975 10975 10975 10974 10974 10973 10973 10971 10971 10970 10969 10968 10967 10965 10965 10964 10964
10905 10908 10911 10915 10918 10920 10923 10926 10928 10930 10932 10933 10934 10936 10938 10940 10942 10944 10946 10947 10948 10950 10952 10955 10956 10957 10958 10959 10961 10962 10963 10965 10966 10968 10969 10970 10970 10971 10971 10971 10972 10972 10972 10972 10972 10972 10971 10971 10971 10971 10970 10970 10969 10968 10967 10966 10965 10965 10963 10962 10961 10960 10959
10901 10904 10908 10911 10913 10915 10918 10921 10923 10926 10928 10929 10931 10933 10934 10936 10938 10941 10942 10944 10945 10948 10950 10951 10952 10953 10953 10955 10956 10957 10959 10961 10962 10964 10965 10965 10966 10966 10967 10967 10968 10968 10969 10969 10968 10968 10968 10967 10967 10967 10966 10966 10965 10965 10964 10962 10961 10960 10960 10958 10957 10955 10954
10897 10901 10904 10906 10909 10912 10914 10916 10919 10921 10923 10925 10927 10928 10930 10932 10934 10936 10938 10940 10942 10944 10946 10947 10948 10948 10949 10951 10952 10952 10954 10956 10958 10960 10961 10961 10961 10962 10963 10963 10963 10964 10964 10964 10964 10964 10964 10963 10963 10962 10962 10962 10961 10961 10960 10958 10956 10956 10956 10955 10953 10951 10949
10892 10896 10900 10903 10906 10908 10910 10912 10915 10917 10919 10920 10921 10923 10925 10927 10930 10932 10934 10936 10938 10940 10942 10944 10944 10944 10946 10947 10947 10948 10951 10953 10954 10955 10956 10956 10957 10957 10958 10958 10959 10959 10959 10960 10960 10959 10959 10959 10958 10958 10957 10957 10957 10957 10956 10954 10952 10951 10951 10951 10949 10946 10945
10887 10891 10894 10898 10901 10903 10905 10908 10910 10912 10914 10915 10916 10917 10920 10922 10925 10927 10929 10931 10934 10936 10938 10940 10940 10941 10942 10942 10943 10945 10948 10949 10950 10950 10951 10951 10952 10952 10953 10953 10954 10954 10954 10955 10955 10955 10955 10954 10953 10953 10953 10952 10952 10952 10951 10950 10948 10946 10946 10946 10944 10942 10940
10881 10885 10888 10891 10894 10897 10899 10902 10905 10907 10909 10911 10911 10913 10915 10918 10921 10923 10926 10928 10930 10931 10933 10934 10935 10936 10937 10937 10939 10942 10943 10944 10944 10945 10946 10946 10947 10947 10948 10949 10949 10949 10949 10949 10949 10950 10950 10949 10948 10948 10948 10947 10947 10946 10946 10945 10944 10942 10941 10940 10939 10938 10936
10876 10879 10883 10886 10888 10891 10894 10897 10900 10902 10905 10907 10908 10909 10911 10914 10918 10920 10922 10923 10925 10927 10929 10930 10930 10930 10931 10933 10935 10936 10937 10938 10939 10940 10940 10941 10942 10942 10943 10943 10943 10943 10944 10944 10944 10945 10944 10943 10944 10944 10943 10942 10941 10941 10940 10940 10939 10937 10936 10935 10934 10933 10932
10872 10875 10877 10880 10883 10886 10889 10891 10894 10897 10899 10902 10904 10905 10906 10910 10915 10916 10917 10919 10921 10923 10925 10924 10924 10925 10926 10928 10929 10930 10931 10932 10933 10934 10935 10936 10937 10938 10938 10938 10937 10937 10938 10938 10939 10939 10938 10938 10938 10938 10937 10937 10936 10935 10935 10934 10933 10931 10930 10930 10929 10928 10927
10868 10870 10872 10875 10877 10879 10882 10885 10887 10890 10893 10896 10899 10901 10902 10906 10909 10910 10912 10914 10916 10917 10918 10918 10919 10920 10921 10922 10923 10924 10926 10927 10928 10928 10929 10931 10932 10933 10933 10932 10931 10931 10931 10932 10933 10933 10932 10933 10933 10932 10931 10931 10930 10930 10929 10928 10926 10925 10924 10924 10923 10923 10922
10863 10865 10867 10870 10872 10874 10876 10879 10881 10884 10887 10890 10893 10896 10898 10900 10902 10904 10906 10908 10909 10910 10911 10912 10913 10914 10915 10916 10917 10918 10920 10921 10922 10923 10924 10925 10926 10927 10927 10927 10926 10926 10926 10926 10927 10927 10927 10926 10926 10925 10925 10925 10925 10924 10923 10921 10919 10918 10917 10917 10917 10917 10916
10858 10860 10863 10865 10867 10869 10871 10873 10875 10878 10881 10884 10887 10890 10892 10893 10896 10898 10900 10901 10903 10904 10905 10906 10907 10908 10908 10909 10910 10912 10914 10915 10916 10917 10918 10919 10920 10921 10921 10920 10920 10920 10921 10921 10921 10921 10921 10920 10919 10918 10918 10918 10918 10918 10916 10915 10913 10911 10911 10910 10910 10910 10910
10853 10855 10858 10860 10862 10864 10867 10869 10871 10873 10876 10879 10881 10884 10886 10888 10890 10892 10893 10895 10896 10898 10899 10900 10900 10901 10901 10903 10904 10906 10907 10908 10910 10911 10912 10913 10914 10914 10913 10913 10913 10914 10915 10916 10915 10915 10914 10913 10912 10912 10912 10911 10910 10910 10910 10908 10906 10905 10903 10902 10902 10902 10902
10848 10850 10853 10855 10857 10860 10862 10864 10866 10869 10871 10873 10876 10878 10880 10882 10883 10885 10887 10888 10890 10891 10893 10893 10893 10894 10895 10896 10898 10899 10900 10902 10903 10903 10904 10905 10906 10905 10905 10905 10906 10907 10908 10909 10908 10908 10907 10906 10906 10905 10904 10903 10903 10903 10903 10902 10900 10897 10894 10892 10892 10893 10893
10845 10847 10849 10851 10853 10856 10858 10859 10862 10864 10866 10868 10870 10872 10875 10876 10878 10879 10881 10882 10884 10886 10886 10886 10887 10887 10888 10889 10891 10892 10893 10895 10895 10895 10896 10897 10897 10897 10897 10898 10898 10899 10901 10901 10901 10900 10900 10900 10899 10897 10896 10896 10896 10896 10895 10894 10893 10891 10887 10884 10882 10881 10882
10842 10844 10845 10847 10849 10852 10853 10855 10857 10859 10861 10863 10865 10867 10869 10871 10872 10874 10875 10877 10879 10880 10880 10880 10880 10881 10882 10883 10885 10886 10887 10887 10888 10888 10889 10890 10890 10891 10891 10890 10890 10891 10892 10893 10893 10893 10893 10893 10891 10890 10888 10888 10888 10888 10887 10885 10884 10882 10880 10877 10875 10873 10872
10840 10841 10842 10844 10845 10847 10849 10851 10852 10854 10856 10858 10860 10862 10863 10865 10866 10868 10869 10871 10873 10873 10874 10874 10875 10875 10876 10877 10878 10880 10881 10881 10881 10881 10882 10884 10884 10884 10884 10884 10884 10884 10884 10884 10884 10884 10884 10884 10884 10883 10881 10880 10879 10879 10878 10876 10875 10874 10871 10868 10867 10865 10864
10835 10838 10839 10840 10841 10843 10845 10846 10848 10850 10852 10853 10855 10857 10858 10860 10861 10862 10863 10865 10866 10867 10868 10869 10869 10870 10870 10871 10872 10873 10874 10875 10875 10875 10876 10877 10877 10878 10878 10878 10878 10878 10877 10877 10877 10877 10877 10877 10876 10876 10875 10873 10872 10871 10869 10868 10867 10866 10864 10861 10859 10857 10856
10830 10832 10834 10836 10837 10839 10841 10842 10844 10846 10848 10849 10850 10852 10853 10855 10856 10856 10858 10859 10860 10861 10862 10863 10864 10864 10865 10865 10866 10867 10868 10869 10869 10869 10870 10870 10871 10872 10872 10872 10872 10872 10871 10871 10871 10871 10870 10869 10868 10868 10867 10867 10866 10864 10862 10860 10859 10859 10857 10855 10853 10851 10849
10824 10826 10829 10830 10832 10834 10836 10838 10839 10841 10843 10844 10845 10847 10849 10850 10850 10851 10853 10854 10855 10856 10857 10857 10858 10859 10859 10860 10861 10861 10862 10863 10863 10864 10864 10864 10864 10865 10865 10864 10864 10864 10864 10864 10864 10864 10863 10862 10861 10861 10860 10859 10858 10856 10854 10853 10854 10854 10852 10849 10847 10846 10843
10817 10820 10823 10825 10827 10828 10830 10832 10834 10836 10837 10838 10840 10841 10843 10844 10845 10846 10847 10848 10849 10850 10851 10852 10853 10853 10854 10854 10855 10856 10857 10857 10858 10858 10858 10858 10858 10858 10857 10857 10857 10857 10856 10856 10856 10855 10854 10853 10853 10854 10853 10852 10850 10848 10846 10846 10848 10848 10846 10843 10841 10839 10838
10810 10813 10816 10818 10821 10823 10824 10826 10828 10830 10831 10833 10834 10835 10837 10838 10839 10840 10841 10842 10843 10844 10846 10846 10847 10848 10848 10849 10849 10850 10850 10851 10852 10852 10852 10852 10852 10852 10851 10850 10850 10850 10849 10849 10849 10848 10848 10847 10846 10847 10846 10844 10842 10840 10839 10840 10840 10840 10838 10835 10833 10832 10831
10804 10806 10809 10811 10814 10816 10818 10820 10822 10824 10826 10827 10828 10830 10831 10832 10833 10834 10835 10836 10837 10838 10840 10840 10841 10842 10842 10843 10844 10844 10844 10845 10845 10845 10846 10846 10845 10845 10845 10844 10844 10844 10843 10842 10842 10842 10841 10840 10839 10839 10838 10836 10835 10834 10833 10833 10833 10833 10831 10828 10827 10827 10827
10797 10799 10802 10805 10807 10810 10812 10814 10816 10817 10819 10821 10822 10824 10825 10826 10826 10827 10828 10829 10831 10832 10833 10834 10835 10836 10836 10837 10838 10838 10838 10838 10838 10838 10839 10839 10839 10839 10838 10838 10837 10837 10836 10835 10834 10835 10835 10833 10832 10831 10829 10828 10828 10827 10826 10826 10825 10824 10823 10822 10822 10823 10823
10791 10793 10796 10798 10800 10802 10804 10807 10809 10811 10813 10814 10816 10817 10818 10819 10820 10821 10822 10823 10824 10825 10826 10827 10828 10829 10830 10830 10831 10831 10831 10831 10832 10832 10832 10832 10832 10832 10832 10831 10831 10831 10829 10828 10827 10828 10828 10827 10826 10824 10822 10822 10822 10820 10819 10819 10818 10816 10815 10816 10817 10818 10818
10785 10787 10789 10791 10793 10795 10797 10799 10802 10804 10805 10807 10809 10810 10811 10812 10813 10814 10815 10816 10817 10818 10819 10819 10820 10821 10822 10823 10823 10824 10824 10824 10825 10825 10825 10825 10825 10825 10825 10824 10824 10824 10823 10822 10821 10820 10820 10819 10819 10817 10815 10815 10816 10814 10812 10813 10813 10811 10809 10811 10812 10813 10812
10777 10779 10782 10784 10786 10788 10790 10792 10794 10796 10798 10800 10802 10803 10804 10806 10807 10807 10808 10809 10810 10810 10811 10812 10813 10814 10815 10816 10816 10817 10817 10818 10818 10818 10818 10818 10819 10819 10818 10818 10817 10817 10816 10815 10814 10813 10813 10812 10812 10811 10809 10809 10810 10809 10807 10806 10807 10806 10806 10806 10807 10807 10807
10769 10771 10774 10777 10779 10781 10783 10785 10787 10788 10790 10792 10794 10795 10797 10798 10799 10800 10800 10801 10801 10802 10804 10805 10806 10807 10808 10808 10809 10809 10810 10810 10810 10811 10811 10811 10811 10811 10811 10811 10810 10810 10809 10808 10807 10806 10806 10805 10804 10804 10803 10803 10803 10803 10801 10800 10799 10799 10799 10800 10801 10800 10799